This demonstration page uses our WeatherBlox Daily Observations layout. Learn more.

Left ArrowRight Arrow

Hourly Observations for March 18, 2021

Temp ( °F °C ) Dew Point ( °F °C ) Humidity (%) Winds ( mph kmh ) Pressure ( in mb ) Visibility ( mi km ) Precip ( " mm )
12:53 am 00:53 Clear 47 8.3 23 -5 39 39 NNW 3 6 30.03 1017 10 16.0934 0 0
1:53 am 01:53 Clear 46 7.8 23 -5 40 40 W 5 7 30.02 1017 10 16.0934 0 0
2:53 am 02:53 Clear 36 2.2 23 -5 59 59 E 7 11 30.03 1017 10 16.0934 0 0
3:53 am 03:53 Clear 27 -2.8 20 -6.7 75 75 Calm 30.04 1017 10 16.0934 0 0
4:53 am 04:53 Clear 27 -2.8 21 -6.1 78 78 Calm 30.04 1017 10 16.0934 0 0
5:53 am 05:53 Clear 23 -5 20 -6.7 88 88 E 5 7 30.06 1018 10 16.0934 0 0
6:53 am 06:53 Clear 26 -3.3 20 -6.7 78 78 ENE 5 7 30.07 1018 10 16.0934 0 0
7:53 am 07:53 Sunny 25 -3.9 21 -6.1 85 85 E 6 9 30.08 1019 10 16.0934 0 0
8:53 am 08:53 Sunny 31 -0.6 22 -5.6 69 69 ENE 5 7 30.08 1019 10 16.0934 0 0
9:53 am 09:53 Sunny 37 2.8 24 -4.4 59 59 ENE 3 6 30.09 1019 10 16.0934 0 0
10:53 am 10:53 Sunny 44 6.7 25 -3.9 47 47 Calm 30.07 1018 10 16.0934 0 0
11:53 am 11:53 Sunny 51 10.6 27 -2.8 39 39 Calm 30.04 1017 10 16.0934 0 0
12:53 pm 12:53 Sunny 56 13.3 26 -3.3 32 32 E 5 7 30 1016 10 16.0934 0 0
1:53 pm 13:53 Sunny 63 17.2 25 -3.9 24 24 SW 10 17 29.95 1014 10 16.0934 0 0
2:53 pm 14:53 Sunny 66 18.9 24 -4.4 20 20 SW 17 28 29.94 1014 10 16.0934 0 0
3:53 pm 15:53 Sunny 66 18.9 23 -5 19 19 SW 12 19 29.93 1014 10 16.0934 0 0
4:53 pm 16:53 Sunny 66 18.9 24 -4.4 20 20 WSW 14 22 29.93 1013 10 16.0934 0 0
5:53 pm 17:53 Sunny 66 18.9 24 -4.4 20 20 SSW 13 20 29.92 1013 10 16.0934 0 0
6:53 pm 18:53 Sunny 61 16.1 24 -4.4 24 24 S 8 13 29.92 1013 10 16.0934 0 0
7:53 pm 19:53 Clear 48 8.9 24 -4.4 39 39 S 9 15 29.94 1014 10 16.0934 0 0
8:53 pm 20:53 Clear 45 7.2 24 -4.4 44 44 S 8 13 29.93 1014 10 16.0934 0 0
9:53 pm 21:53 Clear 46 7.8 24 -4.4 42 42 SE 6 9 29.92 1013 10 16.0934 0 0
10:53 pm 22:53 Clear 43 6.1 24 -4.4 47 47 SSW 7 11 29.91 1013 10 16.0934 0 0
11:53 pm 23:53 Clear 42 5.6 24 -4.4 49 49 SW 6 9 29.9 1013 10 16.0934 0 0

Powered by AerisWeather